Showing default

METEOR 2-13, 16408

Orbit data source: Space-Track

METEOR 2-13, 16408 is a Commonwealth of Independent States-origin payload satellite in LEO that was launched on Thu, 26 Dec 1985 UTC via a TSIKLON-3 launch vehicle from the Plesetsk Missile And Space Complex (PKMTR). Payload-class satellites include a variety of spacecraft equipped with specific instruments for various scientific and technological missions. These include communications satellites like Starlink; space stations such as the ISS; scientific satellites like the Hubble; Earth observation satellites from companies like Planet Labs, Umbra, and HawkEye 360; GPS; miniature CubeSats for education and research; and military/defense satellites.

Loading next visibility...
Identifier
16408, 1985-119A
Orbit
LEO
Country
Flag of CISCIS
Related business
Manufacturer
VNIIEM
Mission
Spacecraft
Bus & Motor
METEOR-2, Unknown motor
Mass
~1,500 kg wet, ~1,500 kg dry
Launch date (UTC)
1985-12-26 (40 years ago)
Launch vehicle
TSIKLON-3
Launch site
Plesetsk Missile And Space Complex (PKMTR)
Object type
Payload
Rocket body
Debris
Shape & HBR
Unknown
Radar Cross Section
Large (>1 m²)

Expand to show TLE details & history
Last TLE update: 2 days ago

TLE from 2 days ago
0 METEOR 2-13
1 16408U 85119A   26171.35029787  .00000079  00000-0  56103-4 0  9996
2 16408  82.5368 251.5811 0017296 110.2228 250.0795 13.85590551 46434
Epoch: 2026-06-20T08:24Z
TLE epoch observation values (Epoch: 2026-06-20T08:24:25.735Z)
Latitude
-0.00002°
Longitude
-143.09231°
Altitude
951.363 km
Speed
7.374 km/s
True Right ascension
16h 46m 19s
True Declination
0° 00' 00"
Sunlit
Object was in full shadow at epoch
Visualization orbit readout
Latitude
Unknown
Longitude
Unknown
Altitude
Unknown
Speed
Unknown
Apparent Right ascension
Unknown
Apparent Declination
Unknown
Sunlit
N/A
Visualization observer readout
Local Sidereal Time
23:08:12
Azimuth
Unknown
Elevation
Unknown
Doppler factor
Unknown
Orbital elements
Apogee altitude
953.934 km
Perigee altitude
928.615 km
Semi-major axis
7,319.412 km
Eccentricity
0.00173
Inclination
82.5368°
RAAN
251.5811°
Arg. of periapsis
110.2228°
True anomaly
249.8933°
Mean anomaly
250.0795°
Eccentric anomaly
249.98639°
Mean motion
3.466 °/min
Orbital period
103.87 mins
BSTAR
0.000056103
Loading maneuver chart data...
Computing Atmospheric mass density...
Loading historical data...
Loading historical data...
Loading historical data...
Loading historical data...
Loading historical data...
Loading historical data...
Loading historical data...
Other satellites on launch #119 in the year 1985 (1985-12-26 UTC)

Documentation

Showing up to 5 results
|